Regional Weather Roundup
Issued by NWS

Home | Current Version | Previous Version | Graphics & Text | Print | Product List | Glossary On
Versions: 1 2 3 4 5 6 7 8 9 10 11 12 13 14 15 16 17 18 19 20 21 22 23 24 25 26 27 28 29 30 31 32 33 34 35 36 37 38 39 40 41 42 43 44 45 46 47 48 49 50
000
ASUS45 KTFX 182210
RWRMT
MONTANA REGIONAL WEATHER ROUNDUP
NATIONAL WEATHER SERVICE GREAT FALLS MT
400 PM MDT FRI AUG 18 2017

NOTE: "FAIR" INDICATES FEW OR NO CLOUDS BELOW 12000 FEET WITH NO
SIGNIFICANT WEATHER AND/OR OBSTRUCTIONS TO VISIBILITY.

MTZ001>007-043-182300-
WEST OF THE DIVIDE

CITY           SKY/WX    TMP DP  RH WIND       PRES   REMARKS
KALISPELL      SUNNY     86  39  19 S17       29.92F
MISSOULA       SUNNY     86  34  15 SE3       29.98F
BUTTE          SUNNY     85  23  10 NW17G24   30.09F
MULLAN PASS    SUNNY     72  36  26 VRB7      30.19F
ANACONDA         N/A     84  19   9 W15G23    30.06F
DEER LODGE       N/A     81  36  19 NE6       30.07F
EUREKA           N/A     88  34  14 MISG      29.90F
HAMILTON         N/A     86  28  12 CALM      30.02F
LIBBY            N/A     88  37  16 S9        29.92F
RONAN            N/A     85  38  18 SE2       30.03F
$$

MTZ008-052>055-182300-
SOUTHWEST MONTANA

CITY           SKY/WX    TMP DP  RH WIND       PRES   REMARKS
BOZEMAN        SUNNY     87  32  14 CALM      30.04F
DILLON         SUNNY     85  30  13 SW14      30.07F
W YELLOWSTONE  SUNNY     77  28  16 SW13G24   30.23F
ENNIS          SUNNY     84  23  10 VRB6G14   30.14F
$$

MTZ009-010-012-014-046-048-049-054-182300-
EAST SLOPES AND CENTRAL MONTANA

CITY           SKY/WX    TMP DP  RH WIND       PRES   REMARKS
CUT BANK       MOSUNNY   86  35  16 W23G30    29.91F
GREAT FALLS    SUNNY     90  26  10 W16G26    29.92F
MALMSTROM AFB  SUNNY     88  28  11 W15G29    29.91F
HELENA         SUNNY     90  30  11 W17G28    29.97F
AUGUSTA          N/A     86  26  11 W13G21    29.97F
BOWMANS CRNR     N/A     84  27  12 W20G25    29.96F
CHOTEAU          N/A     90  28  11 W9G16     29.95F
FAIRFIELD        N/A     88  29  11 W10G18    29.92F
POWER            N/A     88  30  12 SW13G22   29.92F
RAYNESFORD       N/A     87  24  10 SW20G29   29.96F
ULM              N/A     89  27  10 SW12G23   29.92F
$$

MTZ011-013-016-021-045-047-050-051-182300-
NORTH CENTRAL MONTANA

CITY           SKY/WX    TMP DP  RH WIND       PRES   REMARKS
HAVRE          SUNNY     91  35  13 W14       29.84F
LEWISTOWN      SUNNY     84  32  15 MISG      29.97F
N BAR RANCH      N/A     86  25  10 N12G22    30.00F
CHINOOK          N/A     90  37  15 SW8       29.83F
DENTON           N/A     86  31  14 NW14G21   29.89F
GEYSER           N/A     87  26  11 W23G31    29.95F
GRASS RANGE      N/A     87  30  13 W16G22    29.92F
JUDITH GAP       N/A     86  27  12 N12G24    29.98F
WINIFRED         N/A     86  30  13 NW8       29.92F
$$

MTZ017>020-022>027-061-062-182300-
NORTHEAST MONTANA

CITY           SKY/WX    TMP DP  RH WIND       PRES   REMARKS
GLASGOW        SUNNY     88  36  15 S9        29.85F
JORDAN           N/A     92  27   9 W8G17     29.86F
SIDNEY         SUNNY     85  51  31 E6        29.88F
WOLF POINT     SUNNY     90  38  16 SW6       29.86F
MALTA          SUNNY     91  37  15 W10G17    29.82F
PLENTYWOOD       N/A     82  45  26 CALM      29.88F
POPLAR           N/A     86  45  23 SW6       29.87F
$$

MTZ028>42-056>058-182300-
SOUTHCENTRAL AND SOUTHEAST MONTANA

CITY           SKY/WX    TMP DP  RH WIND       PRES   REMARKS
BAKER          MOSUNNY   88  36  15 NW12      29.95F
BILLINGS       SUNNY     89  35  14 SW13      29.95F
LIVINGSTON     SUNNY     89  23   9 NW17G29   30.02F
MILES CITY     SUNNY     91  32  12 SW10      29.90F
BIG TIMBER     SUNNY     88  19   8 W20G28    30.03F
HARLOWTON        N/A     87  24  10 MISG      29.99F
LAUREL           N/A     90  39  16 S9        29.95F
$$

REGIONAL REPORTS...DAKOTAS

CITY           SKY/WX    TMP DP  RH WIND       PRES   REMARKS
WILLISTON      SUNNY     84  50  30 VRB3      29.89F
MINOT          SUNNY     83  48  29 W10       29.88F
DICKINSON      SUNNY     83  47  28 N9        29.93F
BEACH            N/A     86  39  19 VRB6      29.96F
CROSBY           N/A     84  43  23 W13G22    29.88F
TIOGA            N/A     79  46  31 W8G16     29.92F
WATFORD CITY     N/A     84  45  24 VRB5G14   29.90F
BISMARCK       SUNNY     82  52  35 VRB6      29.92F
GRAND FORKS    MOSUNNY   81  57  43 NW10      29.82F
FARGO          MOSUNNY   79  62  56 W10       29.86S
BUFFALO SD       N/A     86  43  22 N6        29.91F
RAPID CITY     SUNNY     84  40  21 E6G15     30.00F
$$

REGIONAL REPORTS...WYOMING/IDAHO/WASHINGTON

CITY           SKY/WX    TMP DP  RH WIND       PRES   REMARKS
GILLETTE       SUNNY     87  28  12 MISG      30.03F
SHERIDAN       SUNNY     90  34  13 VRB5      30.00F
BUFFALO WY     SUNNY     89  30  12 NE7       30.07F
CODY           SUNNY     87  34  15 VRB6G20   30.06F
YELLOWSTONE LA   N/A     72  26  18 NW12G21   30.32F
IDAHO FALLS    SUNNY     84  36  18 SW13G23   30.13F
SALMON         SUNNY     86  40  19 N6        30.03F
BOISE          SUNNY     91  32  12 NW10G23   30.04F
SPOKANE        PTSUNNY   84  38  19 W15G25    29.99F
$$

REGIONAL REPORTS...ALBERTA

CITY           SKY/WX    TMP DP  RH WIND       PRES   REMARKS
EDMONTON       MOSUNNY   72  54  53 N15G24    29.75R
CALGARY        PTSUNNY   82  41  23 S8        29.78F
LETHBRIDGE     PTSUNNY   88  39  18 SW17G29   29.80F
MEDICINE HAT   MOSUNNY   91  41  17 W15G22    29.74F
$$

REGIONAL REPORTS...SASKATCHEWAN

CITY           SKY/WX    TMP DP  RH WIND       PRES   REMARKS
SWIFT CURRENT  SUNNY     88  41  19 SW18G26   29.79F
REGINA         MOSUNNY   82  41  23 W8        29.84F
SASKATOON      MOSUNNY   81  46  30 S8        29.80F
$$



USA.gov is the U.S. government's official web portal to all federal, state and local government web resources and services.